When you browse on this site, cookies collect data to enhance your experience and personalize the content and advertising you see.
Visit our Privacy Policy to learn more. By continuing to use the site, you agree to this use of cookies and data.
  • In United Kingdom
  • List of Countries
  • For 7 days
  • Water Temperature
  • Satellite Maps
  • Weather Map
  • Weather Widgets
  • user-avatar
    Login

    Hourly Weather Muggio

    Today, 21 May, Tuesday

    Time Temperature Precipitation Wind Pressure Humidity
    00:00 +14°C° 0 mm 1 mps 740 mmHg 87%
    01:00 +14°C° 0 mm 1 mps 740 mmHg 89%
    02:00 +13°C° 0 mm 1 mps 740 mmHg 89%
    03:00 +13°C° 0 mm 1 mps 740 mmHg 89%
    04:00 +13°C° 0 mm 1 mps 740 mmHg 90%
    05:00 +13°C° 0 mm 1 mps 740 mmHg 87%
    06:00 +14°C° 0 mm 1 mps 740 mmHg 85%
    07:00 +14°C° 0 mm 1 mps 740 mmHg 82%
    08:00 +16°C° 0 mm 1 mps 741 mmHg 76%
    09:00 +18°C° 0 mm 1 mps 741 mmHg 69%
    10:00 +19°C° 0 mm 2 mps 741 mmHg 62%
    11:00 +20°C° 0 mm 2 mps 741 mmHg 57%
    12:00 +23°C° 0 mm 2 mps 741 mmHg 52%
    13:00 +24°C° 0 mm 3 mps 741 mmHg 47%
    14:00 +24°C° 0.1 mm 3 mps 741 mmHg 49%
    15:00 +25°C° 0.1 mm 3 mps 741 mmHg 50%
    16:00 +25°C° 0.1 mm 3 mps 742 mmHg 51%
    17:00 +22°C° 0.9 mm 3 mps 742 mmHg 57%
    18:00 +21°C° 0.9 mm 3 mps 742 mmHg 62%
    19:00 +20°C° 0.9 mm 3 mps 743 mmHg 67%
    20:00 +19°C° 0.1 mm 3 mps 743 mmHg 70%
    21:00 +18°C° 0.1 mm 2 mps 744 mmHg 73%
    22:00 +17°C° 0.1 mm 2 mps 744 mmHg 75%
    23:00 +16°C° 0 mm 2 mps 745 mmHg 77%

    Tomorrow, 22 May, Wednesday

    Time Temperature Precipitation Wind Pressure Humidity
    00:00 +16°C° 0 mm 1 mps 745 mmHg 79%
    01:00 +15°C° 0 mm 1 mps 745 mmHg 80%
    02:00 +15°C° 0 mm 1 mps 745 mmHg 81%
    03:00 +14°C° 0 mm 1 mps 745 mmHg 81%
    04:00 +13°C° 0 mm 0 mps 745 mmHg 81%
    05:00 +14°C° 0 mm 0 mps 745 mmHg 78%
    06:00 +14°C° 0 mm 0 mps 745 mmHg 76%
    07:00 +15°C° 0 mm 0 mps 745 mmHg 73%
    08:00 +18°C° 0 mm 1 mps 746 mmHg 67%
    09:00 +20°C° 0 mm 1 mps 746 mmHg 62%
    10:00 +20°C° 0 mm 2 mps 746 mmHg 57%
    11:00 +21°C° 0 mm 2 mps 746 mmHg 54%
    12:00 +23°C° 0 mm 2 mps 745 mmHg 51%
    13:00 +25°C° 0 mm 3 mps 745 mmHg 48%
    14:00 +25°C° 0 mm 2 mps 745 mmHg 48%
    15:00 +25°C° 0 mm 2 mps 745 mmHg 47%
    16:00 +25°C° 0 mm 2 mps 745 mmHg 47%
    17:00 +24°C° 0.5 mm 2 mps 745 mmHg 53%
    18:00 +23°C° 0.5 mm 2 mps 745 mmHg 58%
    19:00 +21°C° 0.5 mm 2 mps 745 mmHg 64%
    20:00 +20°C° 0.6 mm 2 mps 746 mmHg 67%
    21:00 +19°C° 0.6 mm 2 mps 746 mmHg 71%
    22:00 +19°C° 0.6 mm 1 mps 747 mmHg 75%
    23:00 +18°C° 0.6 mm 1 mps 747 mmHg 76%

    Day after tomorrow, 23 May, Thursday

    Time Temperature Precipitation Wind Pressure Humidity
    00:00 +18°C° 0.6 mm 1 mps 747 mmHg 77%
    01:00 +16°C° 0.6 mm 1 mps 748 mmHg 78%
    02:00 +16°C° 0.1 mm 1 mps 748 mmHg 79%
    03:00 +15°C° 0.1 mm 1 mps 748 mmHg 79%
    04:00 +15°C° 0.1 mm 1 mps 747 mmHg 80%
    05:00 +15°C° 0 mm 0 mps 747 mmHg 77%
    06:00 +15°C° 0 mm 0 mps 747 mmHg 74%
    07:00 +16°C° 0 mm 0 mps 747 mmHg 71%
    08:00 +18°C° 0 mm 0 mps 747 mmHg 66%
    09:00 +21°C° 0 mm 1 mps 747 mmHg 61%
    10:00 +23°C° 0 mm 1 mps 747 mmHg 56%
    11:00 +24°C° 0 mm 1 mps 747 mmHg 53%
    12:00 +25°C° 0 mm 1 mps 746 mmHg 50%
    13:00 +26°C° 0 mm 2 mps 746 mmHg 47%
    14:00 +26°C° 0 mm 2 mps 746 mmHg 46%
    15:00 +26°C° 0 mm 1 mps 746 mmHg 44%
    16:00 +27°C° 0 mm 1 mps 745 mmHg 43%
    17:00 +26°C° 0 mm 1 mps 745 mmHg 47%
    18:00 +25°C° 0 mm 1 mps 745 mmHg 51%
    19:00 +24°C° 0 mm 1 mps 745 mmHg 54%
    20:00 +23°C° 0.3 mm 1 mps 746 mmHg 60%
    21:00 +22°C° 0.3 mm 1 mps 746 mmHg 65%
    22:00 +21°C° 0.3 mm 1 mps 746 mmHg 71%
    23:00 +18°C° 1.2 mm 0 mps 746 mmHg 73%

    24 May, Friday

    Time Temperature Precipitation Wind Pressure Humidity
    00:00 +17°C° 1.2 mm 0 mps 746 mmHg 76%
    01:00 +17°C° 1.2 mm 0 mps 746 mmHg 78%
    02:00 +16°C° 0.9 mm 0 mps 746 mmHg 78%
    03:00 +16°C° 0.9 mm 0 mps 746 mmHg 79%
    04:00 +18°C° 0.9 mm 1 mps 746 mmHg 79%
    05:00 +16°C° 0.5 mm 0 mps 746 mmHg 76%
    06:00 +17°C° 0.5 mm 0 mps 746 mmHg 73%
    07:00 +17°C° 0.5 mm 0 mps 746 mmHg 71%
    08:00 +21°C° 0.3 mm 1 mps 746 mmHg 68%
    09:00 +22°C° 0.3 mm 1 mps 745 mmHg 65%
    10:00 +23°C° 0.3 mm 1 mps 745 mmHg 62%
    11:00 +24°C° 0.4 mm 1 mps 745 mmHg 58%
    12:00 +25°C° 0.4 mm 2 mps 744 mmHg 54%
    13:00 +26°C° 0.4 mm 2 mps 744 mmHg 50%
    14:00 +26°C° 0.4 mm 2 mps 743 mmHg 50%
    15:00 +26°C° 0.4 mm 2 mps 743 mmHg 50%
    16:00 +26°C° 0.4 mm 2 mps 742 mmHg 51%
    17:00 +25°C° 1.9 mm 2 mps 742 mmHg 55%
    18:00 +24°C° 1.9 mm 2 mps 742 mmHg 60%
    19:00 +23°C° 1.9 mm 1 mps 742 mmHg 65%
    20:00 +22°C° 1.9 mm 1 mps 742 mmHg 66%
    21:00 +22°C° 1.9 mm 1 mps 742 mmHg 68%
    22:00 +21°C° 1.9 mm 1 mps 742 mmHg 70%
    23:00 +21°C° 1.2 mm 1 mps 742 mmHg 72%

    25 May, Saturday

    Time Temperature Precipitation Wind Pressure Humidity
    00:00 +20°C° 1.2 mm 1 mps 742 mmHg 73%
    01:00 +20°C° 1.2 mm 1 mps 742 mmHg 75%
    02:00 +19°C° 1 mm 1 mps 742 mmHg 77%
    03:00 +19°C° 1 mm 1 mps 742 mmHg 78%
    04:00 +18°C° 1 mm 1 mps 742 mmHg 80%
    05:00 +18°C° 0.5 mm 1 mps 742 mmHg 78%
    06:00 +18°C° 0.5 mm 1 mps 742 mmHg 77%
    07:00 +19°C° 0.5 mm 1 mps 742 mmHg 76%
    08:00 +20°C° 0.1 mm 1 mps 743 mmHg 69%
    09:00 +20°C° 0.1 mm 2 mps 743 mmHg 63%
    10:00 +21°C° 0.1 mm 2 mps 743 mmHg 56%
    11:00 +24°C° 0.1 mm 2 mps 743 mmHg 53%
    12:00 +25°C° 0.1 mm 1 mps 743 mmHg 50%
    13:00 +26°C° 0.1 mm 1 mps 743 mmHg 47%
    14:00 +26°C° 0.3 mm 1 mps 743 mmHg 47%
    15:00 +26°C° 0.3 mm 2 mps 743 mmHg 47%
    16:00 +26°C° 0.3 mm 2 mps 742 mmHg 48%
    17:00 +25°C° 0.1 mm 2 mps 743 mmHg 53%
    18:00 +24°C° 0.1 mm 2 mps 743 mmHg 58%
    19:00 +23°C° 0.1 mm 2 mps 743 mmHg 63%
    20:00 +21°C° 1.3 mm 2 mps 743 mmHg 67%
    21:00 +21°C° 1.3 mm 1 mps 744 mmHg 71%
    22:00 +20°C° 1.3 mm 1 mps 744 mmHg 75%
    23:00 +20°C° 0.8 mm 1 mps 744 mmHg 76%

    26 May, Sunday

    Time Temperature Precipitation Wind Pressure Humidity
    00:00 +20°C° 0.8 mm 1 mps 744 mmHg 76%
    01:00 +19°C° 0.8 mm 1 mps 744 mmHg 77%
    02:00 +19°C° 0.3 mm 1 mps 744 mmHg 78%
    03:00 +18°C° 0.3 mm 1 mps 744 mmHg 78%
    04:00 +18°C° 0.3 mm 1 mps 745 mmHg 79%
    05:00 +18°C° 0 mm 1 mps 745 mmHg 76%
    06:00 +17°C° 0 mm 0 mps 745 mmHg 73%
    07:00 +18°C° 0 mm 0 mps 745 mmHg 70%
    08:00 +21°C° 0 mm 1 mps 745 mmHg 64%
    09:00 +23°C° 0 mm 1 mps 745 mmHg 59%
    10:00 +24°C° 0 mm 1 mps 745 mmHg 53%
    11:00 +25°C° 0 mm 1 mps 745 mmHg 50%
    12:00 +26°C° 0 mm 1 mps 745 mmHg 46%
    13:00 +27°C° 0 mm 2 mps 744 mmHg 43%
    14:00 +27°C° 0.1 mm 2 mps 744 mmHg 44%
    15:00 +27°C° 0.1 mm 2 mps 744 mmHg 45%
    16:00 +27°C° 0.1 mm 2 mps 744 mmHg 46%
    17:00 +26°C° 0.2 mm 2 mps 744 mmHg 51%
    18:00 +26°C° 0.2 mm 2 mps 744 mmHg 56%
    19:00 +25°C° 0.2 mm 2 mps 744 mmHg 60%
    20:00 +24°C° 0.4 mm 2 mps 745 mmHg 65%
    21:00 +23°C° 0.4 mm 1 mps 746 mmHg 69%
    22:00 +22°C° 0.4 mm 1 mps 746 mmHg 74%
    23:00 +21°C° 0.6 mm 1 mps 746 mmHg 75%
    Show more